Regional Weather Roundup
Issued by NWS Sterling, VA

Home | Current Version | Previous Version | Graphics & Text | Print | Product List | Glossary On
Versions: 1 2 3 4 5 6 7 8 9 10 11 12 13 14 15 16 17 18 19 20 21 22 23 24 25 26 27 28 29 30 31 32 33 34 35 36 37 38 39 40 41 42 43 44 45 46 47 48 49 50
000
ASUS41 KLWX 022010
RWRLWX

REGIONAL WEATHER ROUNDUP
NATIONAL WEATHER SERVICE BALTIMORE MD/WASHINGTON DC
400 PM EDT WED SEP 02 2015

Note: "FAIR" indicates few or no clouds below 12,000 feet
with no significant weather and/or obstructions to visibility.
 TC=TEMPERATURE CELSIUS

 * =Non NWS site. Station does not report precipitation (e.g. rain,
    snow, etc.), thunder, or fog.

DCZ001-MDZ009-015-VAZ040>042-051-053>054-022100-
WASHINGTON METRO

CITY           SKY/WX    TMP DP  RH WIND       PRES   REMARKS
WASHINGTON NAT PTSUNNY   92  65  40 W9        29.95F HX  94
DULLES         CLOUDY    85  65  51 NW8       29.97R
ANDREWS AFB    MOSUNNY   91  66  43 CALM      29.94F HX  94
FT BELVOIR     MOSUNNY   92  67  43 NW6       29.95F HX  94
QUANTICO       PTSUNNY   87  71  58 S3        29.96F HX  93
COLLEGE PARK*  MOSUNNY   91  64  40 CALM      29.94S HX  93
LEESBURG*      PTSUNNY   82  72  69 SW6       29.99F
MANASSAS*      SUNNY     90  66  45 SE7       29.96F HX  92
GAITHERSBURG*  PTSUNNY   88  66  48 W6        30.00S HX  90

$$

MDZ006>007-011-014-022100-
BALTIMORE METRO

CITY           SKY/WX    TMP DP  RH WIND       PRES   REMARKS
BWI AIRPORT    PTSUNNY   92  66  42 NW6       29.93F HX  94
MD SCIENCE CTR   N/A     91  64  40 MISG      29.93F HX  92
MARTIN STATE   MOSUNNY   88  75  66 SE8       29.94F HX  97
ANNAPOLIS      MOSUNNY   84  73  69 SE10      29.94F HX  90
FORT MEADE*    MOSUNNY   88  70  55 CALM      29.96F HX  92

$$

MDZ012-015-019>023-022100-
MARYLAND EASTERN SHORE

CITY           SKY/WX    TMP DP  RH WIND       PRES   REMARKS
OCEAN CITY     PTSUNNY   83  71  67 VRB5      29.96F
SALISBURY      PTSUNNY   89  68  49 W3        29.95F HX  93
BAY BRIDGE AP*   N/A     88  66  48 SE7       29.94F HX  90
CAMBRIDGE*     PTSUNNY   91  61  35 N6        29.94F HX  91
EASTON*        PTSUNNY   90  66  45 NW5       29.98F HX  92

$$

MDZ017>025-022100-
SOUTHERN MARYLAND

CITY           SKY/WX    TMP DP  RH WIND       PRES   REMARKS
PATUXENT RIVER PTSUNNY   84  70  62 SE6       29.96F THUNDER
ST INIGOES     PTSUNNY   87  74  64 CALM      29.95F THUNDER HX  95
LEONARDTOWN*   NOT AVBL

$$

MDZ003>005-022100-
NORTH CENTRAL MARYLAND

CITY           SKY/WX    TMP DP  RH WIND       PRES   REMARKS
FREDERICK*     PTSUNNY   91  70  49 W9        29.98F HX  97
HAGERSTOWN APT TSTM      79  68  69 NE17G37   29.99R VSB 1/4
WESTMINSTER*   PTSUNNY   91  63  38 W7        29.97S HX  92

$$

MDZ501>502-022100-
WESTERN MARYLAND

CITY           SKY/WX    TMP DP  RH WIND       PRES   REMARKS
OAKLAND*       CLOUDY    63  59  88 W6        30.16S FOG
CUMBERLAND*    CLOUDY    72  68  88 N5        30.06F

$$

VAZ025>031-022100-
SHENANDOAH VALLEY

CITY           SKY/WX    TMP DP  RH WIND       PRES   REMARKS
WINCHESTER*    CLOUDY    73  68  83 CALM      30.01F
FRONT ROYAL*   FAIR      70  68  94 S7        30.03R
LURAY*         MOCLDY    79  64  61 N7        30.02F
NEW MARKET*    MOCLDY    80  67  63 NW10G23   30.02R
STAUNTON*      PTSUNNY   85  65  51 NW10      30.05S
WAYNESBORO*    FAIR      85  64  48 S6        30.04R

$$

WVZ021-048>050-054>055-022100-
EASTERN WEST VIRGINIA PANHANDLE

CITY           SKY/WX    TMP DP  RH WIND       PRES   REMARKS
MARTINSBURG    CLOUDY    81  67  62 S12       30.00R
PETERSBURG*    TSTM      69  65  87 N3        30.07R VSB 1

$$

VAZ036>039-050-022100-
CENTRAL FOOTHILLS

CITY           SKY/WX    TMP DP  RH WIND       PRES   REMARKS
CHARLOTTESVILL PTSUNNY   84  71  65 N3        30.00S
CULPEPER*      PTSUNNY   86  69  56 NW3       29.99R
ORANGE*        PTSUNNY   84  73  70 NW3       30.00S HX  91
GORDONSVILLE*  FAIR      85  71  60 NW3       29.98R HX  90
WARRENTON*     FAIR      89  69  51 CALM      29.97S HX  94

$$

VAZ055>057-022100-
NORTH AND CENTRAL PIEDMONT

CITY           SKY/WX    TMP DP  RH WIND       PRES   REMARKS
FREDERICKSBRG* MOSUNNY   93  69  45 NE3       29.95S HX  97
STAFFORD*      MOSUNNY   91  68  46 NE5       30.00F HX  95

$$

NCZ024-NYZ072-PAZ021-071-VAZ022-071-022100-
OTHER REGIONAL OBSERVATIONS

CITY           SKY/WX    TMP DP  RH WIND       PRES   REMARKS
NEW YORK CITY  SUNNY     89  65  44 VRB3      29.94F HX  91
PHILADELPHIA   PTSUNNY   92  62  36 S9        29.92F HX  92
PITTSBURGH     MOSUNNY   90  61  37 W13       30.02F HX  90
ROANOKE        MOSUNNY   91  62  37 SW7       30.03F HX  91
RICHMOND       PTSUNNY   79  65  62 CALM      29.98F THUNDER
RALEIGH        PTSUNNY   90  68  48 SW9       29.99F HX  94

$$

ANZ530>537-022100-
MARINE OBSERVATIONS

STATION/POSITION TIME  TEMP    WIND        PRES
                       AIR SEA DIR/SP/G
                 (UTC) (F)     (DEG/KT/KT) (MB)
THOMAS PT LIGHT  1900   83 81  160/  4/  5 1015.0F
BALT KEY BRIDGE  1900   84     130/  5/  6 1014.1F
COVE POINT       1900   83      70/  1/  3 1015.5F
LEWISETTA        1900   82 81  110/  6/  7 1014.4F
SOLOMONS ISLAND  1900      83                N/A
PINEY POINT      1905          130/  6/  6   N/A

$$



USA.gov is the U.S. government's official web portal to all federal, state and local government web resources and services.